• In Hungary
  • List of Countries
  • For 7 days
  • Water Temperature
  • Satellite Maps
  • Weather Map
  • News
  • Weather Widgets
  • user-avatar
    Login

    Hourly Weather Medvezhiy

    Today, 21 August, Tuesday

    Time Temperature Precipitation Wind Pressure Humidity
    00:00 +18°C° 0 mm 2 mps 742 mmHg 61%
    01:00 +17°C° 0 mm 2 mps 742 mmHg 62%
    02:00 +17°C° 0 mm 2 mps 742 mmHg 62%
    03:00 +17°C° 0 mm 2 mps 742 mmHg 61%
    04:00 +16°C° 0 mm 2 mps 742 mmHg 61%
    05:00 +16°C° 0 mm 2 mps 742 mmHg 62%
    06:00 +16°C° 0 mm 3 mps 742 mmHg 62%
    07:00 +19°C° 0 mm 3 mps 742 mmHg 56%
    08:00 +21°C° 0 mm 3 mps 742 mmHg 50%
    09:00 +23°C° 0 mm 4 mps 742 mmHg 45%
    10:00 +25°C° 0 mm 4 mps 742 mmHg 41%
    11:00 +27°C° 0 mm 4 mps 742 mmHg 37%
    12:00 +28°C° 0 mm 5 mps 742 mmHg 33%
    13:00 +28°C° 0 mm 5 mps 741 mmHg 33%
    14:00 +28°C° 0 mm 5 mps 741 mmHg 33%
    15:00 +29°C° 0 mm 5 mps 741 mmHg 32%
    16:00 +28°C° 0 mm 4 mps 740 mmHg 36%
    17:00 +27°C° 0 mm 4 mps 740 mmHg 40%
    18:00 +26°C° 0 mm 3 mps 740 mmHg 43%
    19:00 +24°C° 0 mm 3 mps 739 mmHg 44%
    20:00 +21°C° 0 mm 3 mps 739 mmHg 46%
    21:00 +20°C° 0 mm 3 mps 739 mmHg 47%
    22:00 +19°C° 0 mm 3 mps 739 mmHg 46%
    23:00 +19°C° 0 mm 3 mps 738 mmHg 44%

    Tomorrow, 22 August, Wednesday

    Time Temperature Precipitation Wind Pressure Humidity
    00:00 +18°C° 0 mm 3 mps 738 mmHg 43%
    01:00 +18°C° 0 mm 4 mps 738 mmHg 42%
    02:00 +18°C° 0 mm 4 mps 737 mmHg 40%
    03:00 +17°C° 0 mm 4 mps 737 mmHg 39%
    04:00 +18°C° 0 mm 4 mps 737 mmHg 41%
    05:00 +18°C° 0 mm 4 mps 737 mmHg 42%
    06:00 +18°C° 0 mm 4 mps 737 mmHg 44%
    07:00 +18°C° 0.4 mm 4 mps 737 mmHg 49%
    08:00 +18°C° 0.4 mm 4 mps 737 mmHg 54%
    09:00 +18°C° 0.4 mm 4 mps 737 mmHg 58%
    10:00 +18°C° 0.6 mm 4 mps 737 mmHg 64%
    11:00 +18°C° 0.6 mm 4 mps 737 mmHg 70%
    12:00 +18°C° 0.6 mm 3 mps 738 mmHg 75%
    13:00 +20°C° 0.1 mm 4 mps 738 mmHg 67%
    14:00 +21°C° 0.1 mm 5 mps 738 mmHg 59%
    15:00 +22°C° 0.1 mm 5 mps 738 mmHg 51%
    16:00 +22°C° 0 mm 5 mps 739 mmHg 51%
    17:00 +21°C° 0 mm 5 mps 739 mmHg 52%
    18:00 +20°C° 0 mm 4 mps 739 mmHg 52%
    19:00 +18°C° 0 mm 4 mps 740 mmHg 56%
    20:00 +17°C° 0 mm 4 mps 740 mmHg 59%
    21:00 +14°C° 0 mm 3 mps 741 mmHg 63%
    22:00 +14°C° 0 mm 3 mps 741 mmHg 65%
    23:00 +13°C° 0 mm 3 mps 741 mmHg 68%

    Day after tomorrow, 23 August, Thursday

    Time Temperature Precipitation Wind Pressure Humidity
    00:00 +12°C° 0 mm 3 mps 742 mmHg 70%
    01:00 +12°C° 0 mm 3 mps 742 mmHg 73%
    02:00 +11°C° 0 mm 3 mps 742 mmHg 75%
    03:00 +11°C° 0 mm 3 mps 742 mmHg 78%
    04:00 +11°C° 0 mm 3 mps 743 mmHg 78%
    05:00 +11°C° 0 mm 3 mps 743 mmHg 79%
    06:00 +11°C° 0 mm 3 mps 744 mmHg 80%
    07:00 +13°C° 0 mm 3 mps 744 mmHg 71%
    08:00 +15°C° 0 mm 4 mps 744 mmHg 63%
    09:00 +17°C° 0 mm 5 mps 745 mmHg 55%
    10:00 +17°C° 0 mm 5 mps 745 mmHg 50%
    11:00 +19°C° 0 mm 5 mps 745 mmHg 46%
    12:00 +20°C° 0 mm 5 mps 745 mmHg 42%
    13:00 +21°C° 0 mm 5 mps 745 mmHg 42%
    14:00 +21°C° 0 mm 5 mps 745 mmHg 41%
    15:00 +21°C° 0 mm 5 mps 745 mmHg 41%
    16:00 +20°C° 0 mm 4 mps 745 mmHg 44%
    17:00 +19°C° 0 mm 4 mps 745 mmHg 48%
    18:00 +19°C° 0 mm 3 mps 745 mmHg 51%
    19:00 +17°C° 0 mm 3 mps 745 mmHg 55%
    20:00 +16°C° 0 mm 2 mps 745 mmHg 59%
    21:00 +14°C° 0 mm 2 mps 746 mmHg 63%
    22:00 +13°C° 0 mm 2 mps 746 mmHg 64%
    23:00 +13°C° 0 mm 2 mps 746 mmHg 66%

    24 August, Friday

    Time Temperature Precipitation Wind Pressure Humidity
    00:00 +12°C° 0 mm 1 mps 746 mmHg 68%
    01:00 +12°C° 0 mm 1 mps 746 mmHg 69%
    02:00 +12°C° 0 mm 1 mps 746 mmHg 70%
    03:00 +11°C° 0 mm 1 mps 746 mmHg 70%
    04:00 +12°C° 0 mm 1 mps 746 mmHg 70%
    05:00 +12°C° 0 mm 1 mps 746 mmHg 70%
    06:00 +12°C° 0 mm 1 mps 747 mmHg 69%
    07:00 +14°C° 0 mm 1 mps 747 mmHg 62%
    08:00 +16°C° 0 mm 2 mps 747 mmHg 56%
    09:00 +18°C° 0 mm 2 mps 747 mmHg 49%
    10:00 +19°C° 0 mm 2 mps 747 mmHg 45%
    11:00 +20°C° 0 mm 2 mps 746 mmHg 42%
    12:00 +23°C° 0 mm 2 mps 746 mmHg 38%
    13:00 +22°C° 0 mm 3 mps 746 mmHg 37%
    14:00 +24°C° 0 mm 3 mps 746 mmHg 36%
    15:00 +24°C° 0 mm 3 mps 746 mmHg 35%
    16:00 +23°C° 0 mm 2 mps 745 mmHg 38%
    17:00 +23°C° 0 mm 2 mps 745 mmHg 42%
    18:00 +21°C° 0 mm 2 mps 745 mmHg 46%
    19:00 +19°C° 0 mm 2 mps 745 mmHg 49%
    20:00 +18°C° 0 mm 2 mps 745 mmHg 52%
    21:00 +16°C° 0 mm 1 mps 745 mmHg 55%
    22:00 +16°C° 0 mm 1 mps 745 mmHg 57%
    23:00 +15°C° 0 mm 1 mps 745 mmHg 59%

    25 August, Saturday

    Time Temperature Precipitation Wind Pressure Humidity
    00:00 +15°C° 0 mm 1 mps 745 mmHg 61%
    01:00 +14°C° 0 mm 1 mps 745 mmHg 63%
    02:00 +14°C° 0 mm 1 mps 745 mmHg 65%
    03:00 +14°C° 0 mm 1 mps 745 mmHg 67%
    04:00 +14°C° 0 mm 1 mps 745 mmHg 68%
    05:00 +14°C° 0 mm 1 mps 745 mmHg 69%
    06:00 +14°C° 0 mm 1 mps 745 mmHg 70%
    07:00 +16°C° 0 mm 1 mps 746 mmHg 64%
    08:00 +18°C° 0 mm 2 mps 746 mmHg 58%
    09:00 +20°C° 0 mm 2 mps 746 mmHg 51%
    10:00 +21°C° 0 mm 2 mps 746 mmHg 47%
    11:00 +24°C° 0 mm 2 mps 746 mmHg 44%
    12:00 +25°C° 0 mm 2 mps 746 mmHg 40%
    13:00 +25°C° 0 mm 2 mps 745 mmHg 39%
    14:00 +26°C° 0 mm 2 mps 745 mmHg 38%
    15:00 +26°C° 0 mm 2 mps 745 mmHg 36%
    16:00 +26°C° 0 mm 2 mps 745 mmHg 40%
    17:00 +25°C° 0 mm 2 mps 744 mmHg 44%
    18:00 +24°C° 0 mm 2 mps 744 mmHg 47%
    19:00 +23°C° 0 mm 2 mps 744 mmHg 50%
    20:00 +20°C° 0 mm 2 mps 744 mmHg 53%
    21:00 +20°C° 0 mm 1 mps 744 mmHg 56%
    22:00 +18°C° 0 mm 2 mps 744 mmHg 60%
    23:00 +18°C° 0 mm 2 mps 745 mmHg 63%

    26 August, Sunday

    Time Temperature Precipitation Wind Pressure Humidity
    00:00 +17°C° 0 mm 2 mps 745 mmHg 67%
    01:00 +17°C° 0 mm 2 mps 745 mmHg 71%
    02:00 +16°C° 0 mm 2 mps 745 mmHg 75%
    03:00 +16°C° 0 mm 2 mps 745 mmHg 79%
    04:00 +16°C° 0 mm 2 mps 745 mmHg 80%
    05:00 +16°C° 0 mm 2 mps 745 mmHg 82%
    06:00 +16°C° 0 mm 2 mps 745 mmHg 84%
    07:00 +18°C° 0 mm 3 mps 745 mmHg 76%
    08:00 +20°C° 0 mm 3 mps 745 mmHg 68%
    09:00 +22°C° 0 mm 4 mps 745 mmHg 60%
    10:00 +23°C° 0 mm 4 mps 745 mmHg 55%
    11:00 +25°C° 0 mm 4 mps 745 mmHg 50%
    12:00 +26°C° 0 mm 4 mps 745 mmHg 46%
    13:00 +26°C° 0 mm 4 mps 744 mmHg 44%
    14:00 +27°C° 0 mm 4 mps 744 mmHg 43%
    15:00 +27°C° 0 mm 4 mps 744 mmHg 41%
    16:00 +26°C° 0 mm 4 mps 744 mmHg 45%
    17:00 +25°C° 0 mm 3 mps 743 mmHg 49%
    18:00 +24°C° 0 mm 3 mps 743 mmHg 53%
    19:00 +22°C° 0 mm 3 mps 743 mmHg 58%
    20:00 +21°C° 0 mm 3 mps 743 mmHg 62%
    21:00 +19°C° 0 mm 3 mps 743 mmHg 67%
    22:00 +19°C° 0 mm 3 mps 743 mmHg 71%
    23:00 +18°C° 0 mm 3 mps 743 mmHg 75%
    Show more